NOK311 VRMG-VRMM

Flight info

Callsign NOK311
Flight time 0h 59m
Altitude 31000
Route VIPOK T456 DALSO DCT ATISA ATISA2D
Aircraft B738/M-SDE2E3FGHIRWXY/LB1

Departure

Time 2026-04-20 20:46
Airport Gan International Airport (VRMG)

Arrival

Time 2026-04-20 21:45
Airport Velana International Airport (VRMM)
Time Latitude Longitude Altitude Speed Heading
2026-04-20 20:22 -0.69083 73.15641 14 ft 0 kts 12°
2026-04-20 20:33 -0.69085 73.15641 14 ft 2 kts 12°
2026-04-20 20:33 -0.69100 73.15638 14 ft 2 kts 12°
2026-04-20 20:34 -0.69115 73.15634 14 ft 2 kts 12°
2026-04-20 20:34 -0.69130 73.15631 14 ft 2 kts 21°
2026-04-20 20:34 -0.69141 73.15622 14 ft 2 kts 62°
2026-04-20 20:34 -0.69145 73.15608 14 ft 0 kts 93°
2026-04-20 20:35 -0.69144 73.15602 14 ft 1 kts 100°
2026-04-20 20:35 -0.69144 73.15600 14 ft 0 kts 98°
2026-04-20 20:40 -0.69145 73.15607 14 ft 2 kts 98°
2026-04-20 20:40 -0.69151 73.15653 14 ft 9 kts 97°
2026-04-20 20:41 -0.69162 73.15721 14 ft 10 kts 97°
2026-04-20 20:41 -0.69169 73.15787 14 ft 8 kts 99°
2026-04-20 20:41 -0.69184 73.15860 14 ft 12 kts 101°
2026-04-20 20:41 -0.69199 73.15944 14 ft 10 kts 100°
2026-04-20 20:42 -0.69224 73.15987 14 ft 7 kts 153°
2026-04-20 20:42 -0.69275 73.15994 14 ft 7 kts 181°
2026-04-20 20:42 -0.69330 73.15991 14 ft 9 kts 177°
2026-04-20 20:42 -0.69393 73.16059 14 ft 20 kts 103°
2026-04-20 20:43 -0.69424 73.16236 14 ft 30 kts 98°
2026-04-20 20:43 -0.69456 73.16444 14 ft 29 kts 98°
2026-04-20 20:43 -0.69498 73.16594 12 ft 18 kts 123°
2026-04-20 20:43 -0.69548 73.16690 11 ft 10 kts 90°
2026-04-20 20:44 -0.69501 73.16710 11 ft 8 kts 301°
2026-04-20 20:44 -0.69494 73.16685 11 ft 0 kts 279°
2026-04-20 20:44 -0.69494 73.16683 11 ft 0 kts 279°
2026-04-20 20:45 -0.69494 73.16682 11 ft 0 kts 279°
2026-04-20 20:45 -0.69482 73.16605 12 ft 39 kts 276°
2026-04-20 20:45 -0.69389 73.16010 14 ft 132 kts 279°
2026-04-20 20:45 -0.69213 73.14896 322 ft 182 kts 279°
2026-04-20 20:46 -0.69019 73.13612 1329 ft 194 kts 279°
2026-04-20 20:46 -0.68833 73.12392 2586 ft 179 kts 278°
2026-04-20 20:46 -0.68668 73.11233 3611 ft 171 kts 278°
2026-04-20 20:46 -0.68506 73.10077 4500 ft 169 kts 278°
2026-04-20 20:47 -0.68347 73.08951 5325 ft 168 kts 278°
2026-04-20 20:47 -0.68186 73.07816 6126 ft 168 kts 278°
2026-04-20 20:47 -0.68025 73.06678 6895 ft 167 kts 278°
2026-04-20 20:47 -0.67865 73.05540 7618 ft 168 kts 278°
2026-04-20 20:48 -0.67705 73.04407 8319 ft 169 kts 278°
2026-04-20 20:48 -0.67542 73.03241 8927 ft 177 kts 278°
2026-04-20 20:48 -0.67363 73.01957 9390 ft 196 kts 278°
2026-04-20 20:48 -0.67147 73.00577 9893 ft 214 kts 286°
2026-04-20 20:49 -0.66335 72.99220 10013 ft 252 kts 320°
2026-04-20 20:49 -0.64621 72.98434 9987 ft 287 kts 353°
2026-04-20 20:49 -0.62579 72.98706 10094 ft 311 kts 25°
2026-04-20 20:49 -0.60796 72.99975 10709 ft 326 kts 43°
2026-04-20 20:50 -0.59137 73.01605 11299 ft 342 kts 44°
2026-04-20 20:50 -0.57294 73.03117 12131 ft 349 kts 36°
2026-04-20 20:50 -0.55220 73.04394 12997 ft 354 kts 28°
2026-04-20 20:50 -0.52933 73.05392 13889 ft 359 kts 20°
2026-04-20 20:51 -0.50556 73.06139 14797 ft 362 kts 16°
2026-04-20 20:51 -0.48101 73.06754 15699 ft 363 kts 13°
2026-04-20 20:51 -0.45635 73.07301 16500 ft 367 kts 12°
2026-04-20 20:51 -0.43123 73.07836 17332 ft 369 kts 12°
2026-04-20 20:52 -0.40584 73.08379 18050 ft 375 kts 13°
2026-04-20 20:52 -0.38025 73.08936 18705 ft 381 kts 13°
2026-04-20 20:52 -0.35428 73.09512 19363 ft 387 kts 13°
2026-04-20 20:52 -0.32770 73.10108 20007 ft 393 kts 13°
2026-04-20 20:53 -0.30066 73.10718 20616 ft 399 kts 13°
2026-04-20 20:53 -0.27323 73.11338 21222 ft 404 kts 13°
2026-04-20 20:53 -0.24596 73.11955 21796 ft 410 kts 13°
2026-04-20 20:53 -0.21768 73.12595 22402 ft 415 kts 13°
2026-04-20 20:54 -0.18951 73.13232 22983 ft 419 kts 13°
2026-04-20 20:54 -0.16080 73.13881 23548 ft 424 kts 13°
2026-04-20 20:54 -0.13194 73.14533 24201 ft 426 kts 13°
2026-04-20 20:54 -0.10281 73.15191 24732 ft 431 kts 13°
2026-04-20 20:55 -0.07323 73.15859 25284 ft 435 kts 13°
2026-04-20 20:55 -0.04360 73.16529 25821 ft 439 kts 13°
2026-04-20 20:55 -0.01376 73.17203 26322 ft 443 kts 13°
2026-04-20 20:55 0.01661 73.17889 26830 ft 447 kts 13°
2026-04-20 20:56 0.04703 73.18576 27366 ft 449 kts 13°
2026-04-20 20:56 0.07732 73.19260 28111 ft 446 kts 12°
2026-04-20 20:56 0.10786 73.19890 28829 ft 443 kts
2026-04-20 20:56 0.13829 73.20314 29495 ft 442 kts
2026-04-20 20:57 0.16867 73.20577 30146 ft 440 kts
2026-04-20 20:57 0.19927 73.20760 30710 ft 439 kts
2026-04-20 20:57 0.23005 73.20907 30823 ft 443 kts
2026-04-20 20:57 0.26073 73.21043 30821 ft 438 kts
2026-04-20 20:58 0.32160 73.21326 30824 ft 436 kts
2026-04-20 20:58 0.38228 73.21633 30822 ft 436 kts
2026-04-20 20:59 0.44318 73.21961 30822 ft 436 kts
2026-04-20 20:59 0.50424 73.22298 30822 ft 437 kts
2026-04-20 21:00 0.56652 73.22646 30824 ft 456 kts
2026-04-20 21:00 0.59854 73.22823 30822 ft 467 kts
2026-04-20 21:00 0.63130 73.23006 30822 ft 478 kts
2026-04-20 21:01 0.66518 73.23196 30822 ft 489 kts
2026-04-20 21:01 0.69952 73.23388 30822 ft 494 kts
2026-04-20 21:01 0.76815 73.23776 30822 ft 491 kts
2026-04-20 21:02 0.83684 73.24164 30822 ft 492 kts
2026-04-20 21:02 0.90506 73.24548 30830 ft 493 kts
2026-04-20 21:03 0.97394 73.24936 30838 ft 493 kts
2026-04-20 21:03 1.04243 73.25322 30838 ft 494 kts
2026-04-20 21:04 1.11141 73.25710 30835 ft 492 kts
2026-04-20 21:04 1.17983 73.26094 30833 ft 493 kts
2026-04-20 21:05 1.24848 73.26481 30833 ft 492 kts
2026-04-20 21:05 1.31722 73.26868 30833 ft 492 kts
2026-04-20 21:06 1.38609 73.27255 30835 ft 492 kts
2026-04-20 21:06 1.45443 73.27640 30826 ft 491 kts
2026-04-20 21:07 1.52276 73.28026 30821 ft 492 kts
2026-04-20 21:07 1.59121 73.28411 30821 ft 491 kts
2026-04-20 21:08 1.65956 73.28796 30819 ft 489 kts
2026-04-20 21:08 1.72815 73.29183 30820 ft 491 kts
2026-04-20 21:09 1.79634 73.29567 30821 ft 490 kts
2026-04-20 21:09 1.86445 73.29951 30824 ft 489 kts
2026-04-20 21:10 1.93283 73.30337 30822 ft 490 kts
2026-04-20 21:10 2.00094 73.30720 30824 ft 490 kts
2026-04-20 21:11 2.06943 73.31107 30822 ft 489 kts
2026-04-20 21:11 2.13744 73.31490 30821 ft 489 kts
2026-04-20 21:12 2.20569 73.31876 30821 ft 489 kts
2026-04-20 21:12 2.27382 73.32260 30822 ft 489 kts
2026-04-20 21:13 2.34120 73.32641 30820 ft 469 kts
2026-04-20 21:13 2.40550 73.33006 30823 ft 464 kts
2026-04-20 21:14 2.47067 73.33373 30821 ft 466 kts
2026-04-20 21:14 2.53534 73.33737 30822 ft 466 kts
2026-04-20 21:15 2.60050 73.34105 30822 ft 466 kts
2026-04-20 21:15 2.66542 73.34472 30821 ft 466 kts
2026-04-20 21:16 2.73022 73.34838 30822 ft 465 kts
2026-04-20 21:16 2.79488 73.35204 30822 ft 466 kts
2026-04-20 21:17 2.85827 73.35562 30628 ft 443 kts
2026-04-20 21:17 2.88914 73.35737 30360 ft 433 kts
2026-04-20 21:17 2.91884 73.35905 30100 ft 424 kts
2026-04-20 21:18 2.94831 73.36073 29817 ft 417 kts
2026-04-20 21:18 2.97712 73.36236 29521 ft 413 kts
2026-04-20 21:18 3.00556 73.36397 29065 ft 411 kts
2026-04-20 21:18 3.03461 73.36561 28199 ft 419 kts
2026-04-20 21:19 3.06352 73.36723 27335 ft 417 kts
2026-04-20 21:19 3.09223 73.36886 26834 ft 403 kts
2026-04-20 21:19 3.11965 73.37041 26346 ft 390 kts
2026-04-20 21:20 3.17261 73.37343 25191 ft 373 kts
2026-04-20 21:20 3.19858 73.37490 24605 ft 366 kts
2026-04-20 21:20 3.22370 73.37633 24028 ft 359 kts
2026-04-20 21:20 3.24838 73.37773 23409 ft 354 kts
2026-04-20 21:21 3.27266 73.37910 22792 ft 350 kts
2026-04-20 21:21 3.29686 73.38158 22159 ft 347 kts 10°
2026-04-20 21:21 3.31975 73.38846 21544 ft 344 kts 23°
2026-04-20 21:21 3.34076 73.40012 20922 ft 341 kts 36°
2026-04-20 21:22 3.35820 73.41554 20315 ft 337 kts 49°
2026-04-20 21:22 3.37194 73.43453 19695 ft 333 kts 61°
2026-04-20 21:22 3.38084 73.45550 19103 ft 325 kts 73°
2026-04-20 21:22 3.38453 73.47736 18490 ft 315 kts 89°
2026-04-20 21:23 3.38062 73.49847 17865 ft 308 kts 110°
2026-04-20 21:23 3.37188 73.51753 17256 ft 301 kts 115°
2026-04-20 21:23 3.36335 73.53635 16652 ft 294 kts 109°
2026-04-20 21:23 3.36023 73.55612 16047 ft 287 kts 85°
2026-04-20 21:24 3.36576 73.57457 15451 ft 281 kts 58°
2026-04-20 21:24 3.37890 73.58860 14849 ft 276 kts 36°
2026-04-20 21:24 3.39569 73.59798 14241 ft 273 kts 22°
2026-04-20 21:24 3.41352 73.60369 13642 ft 271 kts 13°
2026-04-20 21:25 3.43219 73.60605 13029 ft 269 kts 358°
2026-04-20 21:25 3.45070 73.60330 12418 ft 268 kts 349°
2026-04-20 21:25 3.46887 73.60031 11865 ft 264 kts 352°
2026-04-20 21:25 3.48681 73.59791 11368 ft 258 kts 353°
2026-04-20 21:26 3.50448 73.59560 10851 ft 255 kts 353°
2026-04-20 21:26 3.52227 73.59317 10345 ft 256 kts 352°
2026-04-20 21:26 3.53972 73.59068 10296 ft 251 kts 352°
2026-04-20 21:26 3.55780 73.58806 10213 ft 274 kts 352°
2026-04-20 21:27 3.57699 73.58527 10102 ft 278 kts 352°
2026-04-20 21:27 3.59621 73.58247 10003 ft 278 kts 353°
2026-04-20 21:27 3.61526 73.57970 9907 ft 276 kts 352°
2026-04-20 21:27 3.63433 73.57716 9815 ft 275 kts 354°
2026-04-20 21:28 3.65358 73.57526 9737 ft 274 kts 356°
2026-04-20 21:28 3.67254 73.57360 9695 ft 274 kts 356°
2026-04-20 21:28 3.69171 73.57186 9646 ft 274 kts 355°
2026-04-20 21:28 3.71083 73.57001 9599 ft 273 kts 355°
2026-04-20 21:29 3.72971 73.56812 9551 ft 273 kts 355°
2026-04-20 21:29 3.74884 73.56619 9503 ft 273 kts 355°
2026-04-20 21:29 3.76762 73.56428 9455 ft 273 kts 355°
2026-04-20 21:29 3.78673 73.56235 9408 ft 273 kts 355°
2026-04-20 21:30 3.80569 73.56042 9361 ft 274 kts 355°
2026-04-20 21:30 3.82474 73.55849 9313 ft 274 kts 355°
2026-04-20 21:30 3.84369 73.55656 9264 ft 273 kts 355°
2026-04-20 21:30 3.86285 73.55463 9216 ft 274 kts 355°
2026-04-20 21:31 3.88194 73.55270 9167 ft 273 kts 355°
2026-04-20 21:31 3.90076 73.55080 9118 ft 273 kts 355°
2026-04-20 21:31 3.91972 73.54887 9062 ft 272 kts 355°
2026-04-20 21:31 3.93867 73.54681 9013 ft 271 kts 351°
2026-04-20 21:32 3.95630 73.54022 8962 ft 272 kts 330°
2026-04-20 21:32 3.97224 73.52966 8824 ft 274 kts 325°
2026-04-20 21:32 3.98773 73.51836 8518 ft 275 kts 324°
2026-04-20 21:32 4.00309 73.50702 8117 ft 277 kts 324°
2026-04-20 21:33 4.01873 73.49545 7708 ft 278 kts 324°
2026-04-20 21:33 4.03509 73.48504 7301 ft 278 kts 334°
2026-04-20 21:33 4.05244 73.47689 6899 ft 278 kts 337°
2026-04-20 21:33 4.06995 73.46916 6468 ft 271 kts 337°
2026-04-20 21:34 4.08718 73.46159 6064 ft 263 kts 337°
2026-04-20 21:34 4.10372 73.45425 5658 ft 257 kts 337°
2026-04-20 21:34 4.11996 73.44743 5278 ft 252 kts 343°
2026-04-20 21:34 4.13690 73.44398 4846 ft 247 kts 354°
2026-04-20 21:35 4.15384 73.44226 4564 ft 237 kts 356°
2026-04-20 21:35 4.16994 73.44087 4303 ft 228 kts 356°
2026-04-20 21:35 4.18552 73.43954 4065 ft 219 kts 356°
2026-04-20 21:35 4.20028 73.43829 4032 ft 202 kts 356°
2026-04-20 21:36 4.21401 73.43713 4059 ft 197 kts 356°
2026-04-20 21:36 4.22789 73.43596 4047 ft 196 kts 356°
2026-04-20 21:36 4.24152 73.43481 4047 ft 196 kts 356°
2026-04-20 21:36 4.25519 73.43367 4006 ft 198 kts 356°
2026-04-20 21:37 4.26917 73.43250 3826 ft 197 kts 356°
2026-04-20 21:37 4.28254 73.43136 3655 ft 192 kts 356°
2026-04-20 21:37 4.29605 73.43024 3440 ft 192 kts 356°
2026-04-20 21:37 4.30939 73.42913 3235 ft 190 kts 356°
2026-04-20 21:38 4.32257 73.42801 3074 ft 188 kts 356°
2026-04-20 21:38 4.33565 73.42690 3076 ft 189 kts 356°
2026-04-20 21:38 4.34883 73.42576 3077 ft 190 kts 356°
2026-04-20 21:38 4.36177 73.42683 3069 ft 189 kts 25°
2026-04-20 21:39 4.37182 73.43518 3078 ft 188 kts 49°
2026-04-20 21:39 4.38035 73.44523 3076 ft 189 kts 50°
2026-04-20 21:39 4.38894 73.45525 3076 ft 188 kts 49°
2026-04-20 21:39 4.39692 73.46551 3071 ft 188 kts 63°
2026-04-20 21:40 4.40022 73.47823 2979 ft 189 kts 82°
2026-04-20 21:40 4.40115 73.49121 2957 ft 188 kts 96°
2026-04-20 21:40 4.39656 73.50366 2945 ft 191 kts 117°
2026-04-20 21:40 4.39006 73.51545 2633 ft 195 kts 117°
2026-04-20 21:41 4.38260 73.52673 2270 ft 198 kts 136°
2026-04-20 21:41 4.37012 73.53187 2042 ft 194 kts 175°
2026-04-20 21:41 4.35680 73.53099 2038 ft 192 kts 183°
2026-04-20 21:41 4.34343 73.53053 2035 ft 192 kts 178°
2026-04-20 21:42 4.32993 73.53082 2034 ft 192 kts 178°
2026-04-20 21:42 4.31721 73.53090 2000 ft 173 kts 179°
2026-04-20 21:42 4.30553 73.53083 1933 ft 163 kts 179°
2026-04-20 21:42 4.29414 73.53087 1626 ft 161 kts 178°
2026-04-20 21:43 4.28331 73.53088 1381 ft 147 kts 179°
2026-04-20 21:43 4.27338 73.53090 1230 ft 142 kts 178°
2026-04-20 21:43 4.26331 73.53093 1046 ft 142 kts 178°
2026-04-20 21:43 4.25344 73.53093 868 ft 142 kts 178°
2026-04-20 21:44 4.24365 73.53095 688 ft 140 kts 178°
2026-04-20 21:44 4.23378 73.53097 507 ft 141 kts 178°
2026-04-20 21:44 4.22391 73.53097 334 ft 141 kts 178°
2026-04-20 21:44 4.21437 73.53097 120 ft 137 kts 178°
2026-04-20 21:45 4.20484 73.53097 26 ft 133 kts 176°
2026-04-20 21:45 4.19620 73.53108 11 ft 97 kts 181°
2026-04-20 21:45 4.19146 73.53109 13 ft 45 kts 184°
2026-04-20 21:45 4.18949 73.53103 14 ft 20 kts 180°
2026-04-20 21:46 4.18825 73.53103 14 ft 17 kts 179°
2026-04-20 21:46 4.18706 73.53103 13 ft 15 kts 180°
2026-04-20 21:46 4.18596 73.53103 12 ft 11 kts 182°
2026-04-20 21:46 4.18546 73.53057 12 ft 10 kts 264°
2026-04-20 21:47 4.18545 73.52981 12 ft 10 kts 270°
2026-04-20 21:47 4.18546 73.52973 12 ft 0 kts 271°
2026-04-20 21:47 4.18546 73.52972 12 ft 0 kts 272°
2026-04-20 21:47 4.18549 73.52962 12 ft 3 kts 298°
2026-04-20 21:48 4.18576 73.52935 12 ft 8 kts 325°
2026-04-20 21:48 4.18634 73.52925 14 ft 9 kts 355°
2026-04-20 21:48 4.18682 73.52888 14 ft 8 kts 296°
2026-04-20 21:48 4.18732 73.52857 14 ft 8 kts 349°
2026-04-20 21:49 4.18795 73.52853 14 ft 7 kts 357°
2026-04-20 21:49 4.18803 73.52853 14 ft 1 kts 357°
2026-04-20 21:49 4.18820 73.52850 14 ft 2 kts 324°
2026-04-20 21:49 4.18831 73.52828 14 ft 3 kts 283°
2026-04-20 21:50 4.18832 73.52811 15 ft 3 kts 272°
2026-04-20 21:50 4.18832 73.52798 15 ft 1 kts 270°
2026-04-20 21:50 4.18832 73.52795 15 ft 0 kts 270°